[Date Prev][Date Next][Thread Prev][Thread Next] - [Date Index][Thread Index][Author Index]
ISS 2Line Keps 02/14
- Subject: [sarex] ISS 2Line Keps 02/14
- From: "Scott Avery" <wa6lie@xxxxxxx>
- Date: Thu, 14 Feb 2002 06:55:04 -0800
ISS
1 25544U 98067A 02045.48620370 .00071387 00000-0 82032-3 0 749
2 25544 51.6387 309.7225 0005664 73.6147 270.4072 15.61357259184884
_________________________________________________________________
MSN Photos is the easiest way to share and print your photos:
http://photos.msn.com/support/worldwide.aspx
----
Via the sarex mailing list at AMSAT.ORG courtesy of AMSAT-NA.
To unsubscribe, send "unsubscribe sarex" to Majordomo@amsat.org
AMSAT Home